User: anonymous   Login
Location: Unspecified
(0.0000°N, 0.0000°E)
Time: 08:49:24
(UTC+00:00)
Language:

TBA - TO BE ASSIGNED - Orbit

View from above orbital plane
View from above orbital plane
View from above satellite
View from above satellite

Ground track
Ground track

The orbit is defined by the following mean orbital elements,

1 67734U          26145.14295784 +.00000000 +00000-0 +62441-3 0 00008
2 67734  97.2860 198.6827 0000370 125.3338 234.7940 15.33443570    01
Epoch (UTC): 25 May 2026 03:25:51
Eccentricity: 0.0000370
inclination: 97.2860°
perigee height: 465 km
apogee height: 466 km
right ascension of ascending node: 198.6827°
argument of perigee: 125.3338°
revolutions per day: 15.33443570
mean anomaly at epoch: 234.7940°

The dashed part of the orbit path shows where the satellite is in the earth's shadow,  

DLR